sat.trackr.live / text

‹ back to catalog

NINGXIA-1 6

NORAD 49018 · 2021-064A

PAYLOAD ACTIVE UNKNOWN

§ Identity

Operator
Country
PRC
Launch date
2021-07-09
Launch site
TAISC
Launch vehicle
Mass (kg)
RCS (m²)

External: N2YO · Heavens-Above · Gunter

§ Orbital elements

Epoch: 2026-09-20T22:58:00.128352Z

Period
102.23 min
Inclination
44.9987°
Eccentricity
0.0008734
Mean motion
14.08544492 rev/d
Perigee alt
858.0 km
Apogee alt
870.7 km
Semi-major
7,242.5 km
B*
2.5359e-5
RAAN
154.4318°
Arg perigee
325.9638°
Mean anomaly
34.0638°
Rev number
26,771

§ Raw data

NINGXIA-1 61 49018U 21064A   26263.95694593 -.00000088  00000+0  25359-4 0  99982 49018  44.9987 154.4318 0008734 325.9638  34.0638 14.08544492267717

JSON: /api/v1/satellites/49018 · /tle

For live sub-satellite position, see the globe view (requires WebGL).

§ Visibility from observer

Set your observer location to see the next 7 days of passes ≥ 10°. The values pass through the URL so the page stays shareable.

No JS? Fill the form by hand. The geolocation button needs JavaScript.